Location: Burgerwiesen
(48.6500°N, 15.6167°E)
Time: 21:25:48
(UTC+00:00)

Mayak - Pass Details

Date: 09 April 2020
Orbit: 581 x 601 km, 97.5° (Epoch: 23 May)

Event Time Altitude Azimuth Distance (km) Brightness Sun altitude
Rises 22:00:19 0° 5° (N) 2,823 ? -31.9°
Reaches altitude 10° 22:02:37 10° 357° (N) 1,916 ? -32.0°
Enters shadow 22:04:48 25° 335° (NNW) 1,187 ? -32.1°
